232P/Hill (2000)

Japanese version
Home page
Updated on January 3, 2010

---------------------------------------------------------------------

* Profile

Designation 232P/1999 XO188

* Orbital Elements

Epoch 2000 Apr. 6.0 TT = JDT 2451640.5
T 2000 Apr. 18.05278 TT                                 MPC
q   2.9614945            (2000.0)            P               Q
n   0.10460275     Peri.   53.35918     -0.31268816     -0.92629830
a   4.4610866      Node    56.17600     +0.77055880     -0.37678892
e   0.3361495      Incl.   14.65882     +0.55539648     +0.00125228
P   9.42

* Magnitudes Graph

        m1 = 4.0 + 5 log d + 25 log r

---------------------------------------------------------------------

The orbital elements are published on M.P.E.C. 2009-Y21.
The magnitudes graphs are made with Comet for Windows.

---------------------------------------------------------------------

Copyright(C) Seiichi Yoshida (comet@aerith.net). All rights reserved.